Date, platform_minetest, platform_other, reason_new, reason_dependency, reason_update
2022-10-23, 11, 1, 4, 5, 0
2022-10-24, 10, 0, 0, 7, 0
2022-10-25, 16, 0, 5, 10, 0
2022-10-26, 9, 0, 4, 3, 0
2022-10-27, 8, 0, 3, 2, 0
2022-10-28, 3, 0, 2, 1, 0
2022-10-29, 11, 0, 1, 8, 0
2022-10-30, 13, 1, 4, 3, 0
2022-10-31, 12, 3, 6, 2, 0
2022-11-01, 5, 0, 1, 2, 0
2022-11-02, 13, 0, 5, 6, 0
2022-11-03, 15, 1, 5, 9, 0
2022-11-04, 10, 3, 4, 6, 0
2022-11-05, 114, 1, 38, 71, 1
2022-11-06, 80, 0, 27, 51, 0
2022-11-07, 90, 4, 30, 19, 36
2022-11-08, 62, 3, 23, 13, 19
2022-11-09, 41, 1, 15, 9, 13
2022-11-10, 32, 1, 12, 6, 10
2022-11-11, 22, 0, 11, 5, 4
2022-11-12, 24, 5, 7, 7, 8
2022-11-13, 28, 2, 8, 5, 7
2022-11-14, 20, 1, 8, 5, 5
2022-11-15, 17, 0, 5, 7, 3
2022-11-16, 28, 1, 12, 7, 7
2022-11-17, 18, 1, 5, 6, 3
2022-11-18, 16, 0, 5, 8, 1
2022-11-19, 38, 0, 9, 12, 12
2022-11-20, 67, 1, 26, 5, 30
2022-11-21, 55, 2, 23, 9, 21
2022-11-22, 43, 1, 20, 6, 13
2022-11-23, 30, 1, 13, 4, 11
2022-11-24, 34, 0, 11, 4, 15
2022-11-25, 26, 3, 6, 8, 11
2022-11-26, 24, 2, 10, 8, 3
2022-11-27, 39, 0, 10, 9, 15
2022-11-28, 22, 2, 6, 6, 8
2022-11-29, 25, 3, 12, 5, 4
2022-11-30, 23, 0, 8, 11, 3
2022-12-01, 17, 2, 5, 6, 3
2022-12-02, 8, 1, 6, 0, 1
2022-12-03, 29, 1, 12, 6, 8
2022-12-04, 30, 0, 13, 8, 5
2022-12-05, 13, 1, 3, 4, 1
2022-12-06, 17, 3, 4, 9, 2
2022-12-07, 11, 2, 5, 6, 0
2022-12-08, 14, 14, 2, 8, 2
2022-12-09, 17, 3, 2, 7, 6
2022-12-10, 20, 0, 5, 8, 3
2022-12-11, 32, 1, 7, 16, 5
2022-12-12, 14, 0, 4, 4, 4
2022-12-13, 18, 0, 7, 7, 3
2022-12-14, 13, 1, 4, 6, 3
2022-12-15, 22, 0, 5, 14, 0
2022-12-16, 24, 2, 4, 13, 3
2022-12-17, 31, 1, 11, 17, 2
2022-12-18, 30, 0, 5, 16, 4
2022-12-19, 22, 4, 8, 8, 2
2022-12-20, 21, 1, 8, 10, 1
2022-12-21, 22, 1, 1, 14, 2
2022-12-22, 13, 1, 2, 8, 0
2022-12-23, 21, 1, 7, 11, 2
2022-12-24, 13, 6, 3, 6, 4
2022-12-25, 19, 11, 2, 10, 4
2022-12-26, 17, 0, 4, 7, 2
2022-12-27, 19, 0, 4, 7, 2
2022-12-28, 21, 2, 3, 12, 5
2022-12-29, 13, 1, 5, 7, 0
2022-12-30, 20, 0, 3, 10, 4
2022-12-31, 11, 0, 3, 7, 1
2023-01-01, 15, 0, 3, 8, 3
2023-01-02, 24, 0, 4, 16, 3
2023-01-03, 10, 1, 1, 5, 2
2023-01-04, 18, 1, 5, 8, 3
2023-01-05, 15, 1, 3, 9, 0
2023-01-06, 14, 1, 3, 8, 0
2023-01-07, 17, 0, 4, 9, 3
2023-01-08, 20, 1, 5, 8, 2
2023-01-09, 15, 0, 5, 8, 0
2023-01-10, 14, 1, 2, 6, 2
2023-01-11, 23, 1, 4, 10, 6
2023-01-12, 13, 1, 6, 5, 1
2023-01-13, 16, 2, 5, 8, 2
2023-01-14, 22, 1, 5, 10, 3
2023-01-15, 27, 3, 7, 9, 6
2023-01-16, 20, 0, 6, 7, 0
2023-01-17, 13, 0, 3, 7, 2
2023-01-18, 17, 3, 3, 9, 2
2023-01-19, 12, 2, 6, 5, 0
2023-01-20, 19, 0, 2, 13, 1
2023-01-21, 17, 0, 4, 12, 1
2023-01-22, 21, 0, 5, 11, 3
2023-01-23, 16, 2, 2, 7, 3
2023-01-24, 10, 0, 2, 8, 0
2023-01-25, 20, 0, 7, 12, 0
2023-01-26, 11, 1, 1, 8, 1
2023-01-27, 21, 1, 4, 12, 0
2023-01-28, 17, 1, 7, 7, 3
2023-01-29, 20, 1, 3, 12, 2
2023-01-30, 12, 1, 2, 4, 3
2023-01-31, 10, 1, 1, 7, 0
2023-02-01, 19, 0, 4, 10, 3
2023-02-02, 10, 0, 3, 5, 0
2023-02-03, 15, 0, 2, 12, 0
2023-02-04, 24, 3, 6, 11, 3
2023-02-05, 18, 0, 4, 13, 1
2023-02-06, 12, 4, 1, 10, 0
2023-02-07, 13, 6, 5, 6, 2
2023-02-08, 13, 0, 6, 4, 1
2023-02-09, 11, 1, 2, 8, 0
2023-02-10, 17, 2, 6, 7, 1
2023-02-11, 17, 1, 2, 12, 3
2023-02-12, 11, 2, 9, 0, 2
2023-02-13, 5, 1, 3, 0, 1
2023-02-14, 4, 1, 3, 0, 0
2023-02-15, 6, 4, 3, 0, 1
2023-02-16, 6, 0, 4, 0, 2
2023-02-17, 4, 0, 4, 0, 0
2023-02-18, 8, 0, 6, 0, 1
2023-02-19, 9, 0, 6, 0, 2
2023-02-20, 4, 1, 3, 0, 0
2023-02-21, 5, 0, 4, 0, 1
2023-02-22, 3, 3, 1, 0, 1
2023-02-23, 5, 0, 3, 0, 1
2023-02-24, 14, 0, 7, 0, 3
2023-02-25, 9, 0, 4, 0, 2
2023-02-26, 8, 0, 6, 0, 2
2023-02-27, 4, 1, 4, 0, 0
2023-02-28, 5, 0, 3, 0, 0
2023-03-01, 3, 0, 3, 0, 0
2023-03-02, 4, 0, 2, 0, 1
2023-03-03, 7, 0, 4, 0, 2
2023-03-04, 5, 0, 3, 0, 1
2023-03-05, 9, 0, 7, 0, 2
2023-03-06, 8, 2, 8, 0, 0
2023-03-07, 5, 1, 4, 0, 1
2023-03-08, 5, 0, 3, 0, 0
2023-03-09, 6, 1, 4, 0, 2
2023-03-10, 5, 0, 4, 0, 0
2023-03-11, 7, 1, 4, 0, 2
2023-03-12, 5, 1, 4, 0, 0
2023-03-13, 1, 1, 1, 0, 0
2023-03-14, 5, 0, 5, 0, 0
2023-03-15, 2, 0, 2, 0, 0
2023-03-16, 3, 1, 3, 0, 0
2023-03-17, 4, 1, 3, 0, 1
2023-03-18, 6, 2, 4, 0, 2
2023-03-19, 5, 1, 5, 0, 0
2023-03-20, 4, 0, 4, 0, 0
2023-03-21, 6, 0, 2, 0, 2
2023-03-22, 2, 0, 1, 0, 1
2023-03-23, 6, 2, 3, 0, 3
2023-03-24, 4, 0, 3, 0, 1
2023-03-25, 5, 0, 4, 0, 0
2023-03-26, 9, 0, 7, 0, 1
2023-03-27, 4, 0, 4, 0, 0
2023-03-28, 3, 1, 1, 0, 0
2023-03-29, 3, 1, 3, 0, 0
2023-03-30, 8, 0, 5, 0, 1
2023-03-31, 3, 0, 3, 0, 0
2023-04-01, 7, 0, 6, 0, 0
2023-04-02, 4, 1, 4, 0, 0
2023-04-03, 5, 0, 3, 0, 2
2023-04-04, 4, 1, 2, 0, 2
2023-04-05, 8, 0, 4, 0, 1
2023-04-06, 8, 0, 6, 0, 1
2023-04-07, 4, 0, 4, 0, 0
2023-04-08, 2, 0, 2, 0, 0
2023-04-09, 5, 1, 3, 0, 1
2023-04-10, 7, 0, 5, 0, 1
2023-04-11, 6, 0, 3, 0, 3
2023-04-12, 9, 0, 6, 0, 2
2023-04-13, 8, 0, 6, 0, 1
2023-04-14, 2, 0, 2, 0, 0
2023-04-15, 6, 0, 5, 0, 0
2023-04-16, 5, 1, 5, 0, 0
2023-04-17, 2, 3, 0, 0, 1
2023-04-18, 3, 0, 2, 0, 0
2023-04-19, 2, 0, 1, 0, 1
2023-04-21, 4, 0, 3, 0, 1
2023-04-22, 4, 0, 3, 0, 0
2023-04-23, 4, 0, 3, 0, 1
2023-04-24, 2, 0, 1, 0, 1
2023-04-25, 3, 0, 2, 0, 0
2023-04-26, 2, 1, 2, 0, 0
2023-04-27, 2, 0, 2, 0, 0
2023-04-28, 6, 0, 3, 0, 1
2023-04-29, 5, 0, 5, 0, 0
2023-04-30, 9, 1, 8, 0, 1
2023-05-01, 5, 1, 3, 0, 1
2023-05-02, 0, 1, 0, 0, 0
2023-05-04, 1, 0, 0, 0, 0
2023-05-05, 1, 0, 1, 0, 0
2023-05-06, 4, 0, 2, 0, 1
2023-05-07, 1, 0, 0, 0, 1
2023-05-08, 1, 1, 0, 0, 0
2023-05-09, 8, 1, 3, 0, 4
2023-05-10, 8, 3, 4, 0, 2
2023-05-11, 3, 1, 3, 0, 0
2023-05-12, 1, 0, 1, 0, 0
2023-05-13, 8, 1, 5, 0, 1
2023-05-14, 4, 0, 4, 0, 0
2023-05-15, 2, 0, 2, 0, 0
2023-05-16, 2, 1, 2, 0, 0
2023-05-17, 3, 2, 2, 0, 0
2023-05-18, 5, 0, 4, 0, 1
2023-05-19, 0, 1, 0, 0, 0
2023-05-20, 4, 0, 3, 0, 0
2023-05-21, 7, 1, 6, 0, 1
2023-05-22, 3, 2, 3, 0, 0
2023-05-23, 3, 0, 3, 0, 0
2023-05-24, 3, 0, 3, 0, 0
2023-05-25, 2, 0, 1, 0, 1
2023-05-26, 2, 1, 2, 0, 0
2023-05-27, 2, 1, 2, 0, 0
2023-05-28, 7, 2, 4, 0, 1
2023-05-29, 2, 1, 2, 0, 0
2023-05-30, 1, 1, 1, 0, 0
2023-05-31, 3, 2, 3, 0, 0
2023-06-01, 2, 2, 2, 0, 0
2023-06-02, 1, 0, 1, 0, 0
2023-06-03, 1, 0, 1, 0, 0
2023-06-04, 3, 0, 3, 0, 0
2023-06-05, 1, 1, 1, 0, 0
2023-06-06, 7, 2, 6, 0, 0
2023-06-07, 2, 1, 2, 0, 0
2023-06-09, 4, 0, 3, 0, 0
2023-06-10, 2, 0, 2, 0, 0
2023-06-11, 3, 0, 2, 0, 0
2023-06-12, 2, 1, 2, 0, 0
2023-06-13, 4, 0, 3, 0, 0
2023-06-14, 2, 1, 2, 0, 0
2023-06-15, 2, 2, 2, 0, 0
2023-06-16, 6, 0, 5, 0, 0
2023-06-17, 6, 1, 5, 0, 0
2023-06-18, 4, 0, 3, 0, 0
2023-06-19, 5, 0, 4, 0, 0
2023-06-20, 7, 0, 6, 0, 0
2023-06-21, 8, 2, 8, 0, 0
2023-06-22, 7, 0, 6, 0, 0
2023-06-23, 7, 2, 7, 0, 0
2023-06-24, 11, 1, 6, 0, 5
2023-06-25, 4, 0, 2, 0, 0
2023-06-26, 8, 0, 6, 0, 1
2023-06-27, 12, 0, 11, 0, 1
2023-06-28, 3, 1, 2, 0, 1
2023-06-29, 3, 0, 3, 0, 0
2023-06-30, 7, 0, 7, 0, 0
2023-07-01, 5, 0, 5, 0, 0
2023-07-02, 11, 0, 7, 0, 4
2023-07-03, 2, 1, 2, 0, 0
2023-07-04, 2, 1, 2, 0, 0
2023-07-05, 5, 1, 1, 0, 1
2023-07-06, 5, 1, 5, 0, 0
2023-07-07, 3, 0, 2, 0, 0
2023-07-08, 4, 1, 4, 0, 0
2023-07-09, 5, 2, 3, 0, 0
2023-07-10, 7, 0, 5, 0, 2
2023-07-11, 4, 1, 3, 0, 0
2023-07-12, 5, 1, 3, 0, 1
2023-07-13, 4, 2, 4, 0, 0
2023-07-14, 3, 0, 2, 0, 0
2023-07-15, 2, 0, 2, 0, 0
2023-07-16, 4, 1, 1, 0, 0
2023-07-17, 6, 0, 4, 0, 2
2023-07-18, 2, 1, 2, 0, 0
2023-07-19, 4, 0, 3, 0, 0
2023-07-20, 6, 2, 6, 0, 0
2023-07-21, 1, 0, 1, 0, 0
2023-07-22, 2, 1, 2, 0, 0
2023-07-23, 8, 1, 7, 0, 1
2023-07-24, 2, 2, 2, 0, 0
2023-07-25, 3, 0, 3, 0, 0
2023-07-26, 4, 0, 3, 0, 0
2023-07-27, 3, 0, 3, 0, 0
2023-07-28, 4, 2, 3, 0, 0
2023-07-29, 2, 1, 2, 0, 0
2023-07-30, 4, 0, 4, 0, 0
2023-07-31, 7, 2, 6, 0, 0
2023-08-01, 10, 0, 9, 0, 1
2023-08-02, 2, 4, 2, 0, 0
2023-08-03, 6, 0, 4, 0, 1
2023-08-04, 4, 0, 3, 0, 1
2023-08-05, 8, 0, 5, 0, 0
2023-08-06, 9, 2, 8, 0, 1
2023-08-07, 5, 0, 4, 0, 0
2023-08-08, 7, 1, 5, 0, 1
2023-08-09, 11, 0, 11, 0, 0
2023-08-10, 4, 2, 2, 0, 0
2023-08-11, 9, 2, 7, 0, 1
2023-08-12, 4, 0, 4, 0, 0
2023-08-13, 3, 0, 3, 0, 0
2023-08-14, 6, 2, 5, 0, 0
2023-08-15, 8, 2, 6, 0, 1
2023-08-16, 2, 1, 2, 0, 0
2023-08-17, 7, 0, 7, 0, 0
2023-08-18, 2, 0, 1, 0, 0
2023-08-19, 8, 0, 8, 0, 0
2023-08-20, 5, 2, 5, 0, 0
2023-08-21, 3, 2, 3, 0, 0
2023-08-22, 5, 0, 5, 0, 0
2023-08-23, 6, 1, 4, 0, 0
2023-08-24, 5, 0, 3, 0, 1
2023-08-25, 7, 3, 6, 0, 0
2023-08-26, 11, 0, 8, 0, 1
2023-08-27, 10, 2, 8, 0, 0
2023-08-28, 10, 0, 6, 0, 3
2023-08-29, 4, 2, 2, 0, 0
2023-08-30, 0, 3, 0, 0, 0
2023-08-31, 7, 0, 4, 0, 1
2023-09-01, 6, 0, 5, 0, 0
2023-09-02, 5, 2, 3, 0, 1
2023-09-03, 11, 1, 10, 0, 0
2023-09-04, 6, 0, 6, 0, 0
2023-09-05, 3, 0, 3, 0, 0
2023-09-06, 5, 2, 5, 0, 0
2023-09-07, 4, 1, 3, 0, 0
2023-09-08, 5, 0, 3, 0, 0
2023-09-09, 4, 1, 2, 0, 0
2023-09-10, 10, 0, 5, 0, 2
2023-09-11, 6, 0, 6, 0, 0
2023-09-12, 7, 1, 4, 0, 2
2023-09-13, 5, 0, 5, 0, 0
2023-09-14, 2, 2, 2, 0, 0
2023-09-15, 6, 1, 4, 0, 2
2023-09-16, 5, 1, 3, 0, 0
2023-09-17, 8, 1, 7, 0, 1
2023-09-18, 5, 0, 5, 0, 0
2023-09-19, 7, 1, 7, 0, 0
2023-09-20, 5, 0, 4, 0, 0
2023-09-21, 6, 0, 5, 0, 0
2023-09-22, 3, 1, 3, 0, 0
2023-09-23, 8, 7, 7, 0, 0
2023-09-24, 2, 0, 0, 0, 1
2023-09-25, 6, 1, 4, 0, 0
2023-09-26, 7, 1, 6, 0, 0
2023-09-27, 4, 0, 3, 0, 0
2023-09-28, 5, 0, 5, 0, 0
2023-09-29, 1, 0, 1, 0, 0
2023-09-30, 8, 2, 7, 0, 0
2023-10-01, 3, 1, 2, 0, 0
2023-10-02, 3, 0, 2, 0, 0
2023-10-03, 5, 0, 4, 0, 0
2023-10-04, 5, 0, 5, 0, 0
2023-10-05, 3, 0, 2, 0, 0
2023-10-06, 2, 1, 2, 0, 0
2023-10-07, 5, 1, 5, 0, 0
2023-10-08, 5, 1, 3, 0, 2
2023-10-09, 3, 0, 2, 0, 0
2023-10-10, 3, 2, 2, 0, 0
2023-10-11, 6, 0, 5, 0, 0
2023-10-12, 4, 0, 4, 0, 0
2023-10-13, 8, 1, 4, 0, 2
2023-10-14, 7, 0, 6, 0, 0
2023-10-15, 7, 0, 6, 0, 0
2023-10-16, 4, 0, 3, 0, 1
2023-10-17, 4, 0, 4, 0, 0
2023-10-18, 5, 0, 4, 0, 0
2023-10-19, 7, 0, 6, 0, 0
2023-10-20, 2, 0, 1, 0, 1
2023-10-21, 6, 0, 6, 0, 0
2023-10-22, 6, 0, 5, 0, 0
2023-10-23, 4, 0, 4, 0, 0
2023-10-24, 2, 1, 2, 0, 0
2023-10-25, 3, 0, 3, 0, 0
2023-10-26, 1, 1, 1, 0, 0
2023-10-27, 3, 0, 3, 0, 0
2023-10-28, 9, 0, 8, 0, 0
2023-10-29, 4, 0, 4, 0, 0
2023-10-30, 11, 0, 10, 0, 1
2023-10-31, 7, 0, 5, 0, 0
2023-11-01, 13, 0, 11, 0, 1
2023-11-02, 5, 1, 5, 0, 0
2023-11-03, 5, 0, 4, 0, 1
2023-11-04, 12, 0, 9, 0, 2
2023-11-05, 11, 0, 11, 0, 0
2023-11-06, 4, 1, 2, 0, 0
2023-11-07, 10, 0, 7, 0, 0
2023-11-08, 11, 0, 10, 0, 0
2023-11-09, 9, 0, 9, 0, 0
2023-11-10, 12, 0, 7, 0, 2
2023-11-11, 5, 1, 5, 0, 0
2023-11-12, 10, 0, 10, 0, 0
2023-11-13, 1, 1, 1, 0, 0
2023-11-14, 18, 0, 17, 0, 0
2023-11-15, 18, 3, 15, 0, 0
2023-11-16, 6, 0, 5, 0, 1
2023-11-17, 5, 0, 5, 0, 0
2023-11-18, 6, 0, 6, 0, 0
2023-11-19, 10, 0, 10, 0, 0
2023-11-20, 12, 0, 11, 0, 0
2023-11-21, 9, 1, 9, 0, 0
2023-11-22, 16, 1, 14, 0, 1
2023-11-23, 8, 0, 8, 0, 0
2023-11-24, 15, 0, 15, 0, 0
2023-11-25, 17, 1, 17, 0, 0
2023-11-26, 12, 0, 9, 0, 0
2023-11-27, 9, 0, 9, 0, 0
2023-11-28, 10, 0, 9, 0, 0
2023-11-29, 17, 1, 14, 0, 2
2023-11-30, 8, 0, 8, 0, 0
2023-12-01, 20, 0, 18, 0, 2
2023-12-02, 8, 0, 7, 0, 0
2023-12-03, 9, 0, 9, 0, 0
2023-12-04, 6, 0, 6, 0, 0
2023-12-05, 14, 0, 13, 0, 0
2023-12-06, 7, 1, 7, 0, 0
2023-12-07, 9, 0, 9, 0, 0
2023-12-08, 23, 2, 20, 0, 2
2023-12-09, 16, 0, 14, 0, 0
2023-12-10, 18, 0, 18, 0, 0
2023-12-11, 9, 0, 9, 0, 0
2023-12-12, 9, 2, 9, 0, 0
2023-12-13, 14, 0, 12, 0, 0
2023-12-14, 9, 5, 9, 0, 0
2023-12-15, 8, 0, 7, 0, 0
2023-12-16, 9, 1, 9, 0, 0
2023-12-17, 15, 0, 13, 0, 0
2023-12-18, 4, 0, 4, 0, 0
2023-12-19, 11, 1, 10, 0, 0
2023-12-20, 14, 0, 11, 0, 2
2023-12-21, 11, 1, 8, 0, 1
2023-12-22, 8, 0, 7, 0, 0
2023-12-23, 8, 2, 6, 0, 0
2023-12-24, 13, 0, 11, 0, 1
2023-12-25, 4, 1, 4, 0, 0
2023-12-26, 9, 0, 9, 0, 0
2023-12-27, 10, 0, 9, 0, 0
2023-12-28, 8, 1, 7, 0, 0
2023-12-29, 8, 1, 8, 0, 0
2023-12-30, 7, 0, 7, 0, 0
2023-12-31, 7, 0, 7, 0, 0
2024-01-01, 15, 0, 13, 0, 0
2024-01-02, 19, 0, 19, 0, 0
2024-01-03, 17, 0, 15, 0, 1
2024-01-04, 10, 0, 8, 0, 0
2024-01-05, 7, 0, 7, 0, 0
2024-01-06, 9, 1, 7, 0, 0
2024-01-07, 10, 0, 9, 0, 0
2024-01-08, 6, 0, 6, 0, 0
2024-01-09, 4, 0, 4, 0, 0
2024-01-10, 8, 1, 8, 0, 0
2024-01-11, 4, 0, 4, 0, 0
2024-01-12, 3, 0, 2, 0, 1
2024-01-13, 6, 1, 6, 0, 0
2024-01-14, 8, 0, 8, 0, 0
2024-01-15, 2, 1, 2, 0, 0
2024-01-16, 16, 3, 15, 0, 0
2024-01-17, 5, 4, 4, 0, 1
2024-01-18, 9, 0, 9, 0, 0
2024-01-19, 12, 0, 11, 0, 1
2024-01-20, 9, 1, 8, 0, 1
2024-01-21, 10, 0, 8, 0, 1
2024-01-22, 3, 1, 2, 0, 0
2024-01-23, 9, 1, 8, 0, 0
2024-01-24, 8, 1, 8, 0, 0
2024-01-25, 6, 2, 7, 0, 0
2024-01-26, 8, 1, 7, 0, 0
2024-01-27, 6, 0, 6, 0, 0
2024-01-28, 3, 1, 2, 0, 0
2024-01-29, 3, 2, 3, 0, 0
2024-01-30, 6, 6, 6, 0, 0
2024-01-31, 3, 2, 2, 0, 1
2024-02-01, 8, 1, 8, 0, 0
2024-02-02, 12, 1, 12, 0, 0
2024-02-03, 9, 1, 9, 0, 0
2024-02-04, 6, 2, 6, 0, 0
2024-02-05, 3, 2, 3, 0, 0
2024-02-06, 8, 4, 6, 0, 0
2024-02-07, 3, 3, 3, 0, 0
2024-02-08, 3, 1, 3, 0, 0
2024-02-09, 6, 4, 5, 0, 1
2024-02-10, 11, 1, 7, 0, 3
2024-02-11, 5, 3, 4, 0, 0
2024-02-12, 5, 1, 4, 0, 1
2024-02-13, 7, 2, 6, 0, 0
2024-02-14, 11, 0, 8, 0, 0
2024-02-15, 8, 3, 8, 0, 0
2024-02-16, 3, 1, 2, 0, 0
2024-02-17, 6, 1, 5, 0, 0
2024-02-18, 10, 0, 9, 0, 0
2024-02-19, 5, 0, 5, 0, 0
2024-02-20, 7, 0, 6, 0, 1
2024-02-21, 4, 0, 4, 0, 0
2024-02-22, 4, 1, 4, 0, 0
2024-02-23, 7, 2, 7, 0, 0
2024-02-24, 5, 0, 4, 0, 1
2024-02-25, 5, 0, 3, 0, 1
2024-02-26, 4, 0, 4, 0, 0
2024-02-27, 6, 0, 5, 0, 0
2024-02-28, 6, 1, 5, 0, 0
2024-02-29, 3, 0, 3, 0, 0
2024-03-01, 4, 1, 3, 0, 0
2024-03-02, 3, 1, 2, 0, 0
2024-03-03, 7, 1, 7, 0, 0
2024-03-04, 6, 0, 6, 0, 0
2024-03-05, 3, 2, 2, 0, 0
2024-03-06, 5, 0, 4, 0, 0
2024-03-07, 7, 1, 6, 0, 0
2024-03-08, 6, 0, 5, 0, 0
2024-03-09, 6, 0, 6, 0, 0
2024-03-10, 72, 11, 32, 0, 38
2024-03-11, 27, 1, 13, 0, 11
2024-03-12, 30, 0, 10, 0, 17
2024-03-13, 15, 1, 8, 0, 7
2024-03-14, 24, 0, 11, 0, 13
2024-03-15, 18, 1, 8, 0, 10
2024-03-16, 15, 1, 8, 0, 6
2024-03-17, 11, 0, 4, 0, 4
2024-03-18, 17, 0, 6, 0, 8
2024-03-19, 16, 0, 8, 0, 7
2024-03-20, 12, 2, 4, 0, 8
2024-03-21, 4, 1, 3, 0, 1
2024-03-22, 10, 0, 4, 0, 5
2024-03-23, 10, 0, 3, 0, 6
2024-03-24, 19, 1, 13, 0, 5
2024-03-25, 8, 1, 6, 0, 2
2024-03-26, 11, 0, 6, 0, 4
2024-03-27, 17, 0, 10, 0, 7
2024-03-28, 12, 0, 6, 0, 6
2024-03-29, 5, 0, 4, 0, 1
2024-03-30, 12, 0, 8, 0, 2
2024-03-31, 13, 0, 4, 0, 7
2024-04-01, 12, 1, 4, 0, 8
2024-04-02, 7, 0, 4, 0, 3
2024-04-03, 5, 1, 3, 0, 1
2024-04-04, 12, 2, 8, 0, 3
2024-04-05, 7, 1, 3, 0, 4
2024-04-06, 4, 0, 2, 0, 2
2024-04-07, 2, 1, 0, 0, 2
2024-04-08, 9, 0, 8, 0, 1
2024-04-09, 11, 0, 10, 0, 0
2024-04-10, 12, 0, 8, 0, 4
2024-04-11, 10, 0, 4, 0, 3
2024-04-12, 13, 0, 10, 0, 3
2024-04-13, 6, 1, 3, 0, 3
2024-04-14, 19, 0, 13, 0, 6
2024-04-15, 13, 0, 11, 0, 2
2024-04-16, 14, 3, 11, 0, 2
2024-04-17, 11, 0, 7, 0, 4
2024-04-18, 23, 1, 21, 0, 2
2024-04-19, 7, 1, 6, 0, 0
2024-04-20, 15, 0, 9, 0, 3
2024-04-21, 16, 0, 11, 0, 4
2024-04-22, 8, 0, 5, 0, 3
2024-04-23, 16, 0, 7, 0, 9
2024-04-24, 9, 0, 9, 0, 0
2024-04-25, 4, 0, 0, 0, 2
2024-04-26, 12, 3, 11, 0, 1
2024-04-27, 9, 2, 7, 0, 2
2024-04-28, 9, 0, 7, 0, 2
2024-04-29, 9, 3, 7, 0, 2
2024-04-30, 13, 1, 10, 0, 1
2024-05-01, 6, 1, 4, 0, 2
2024-05-02, 6, 0, 4, 0, 1
2024-05-03, 9, 0, 5, 0, 3
2024-05-04, 17, 2, 14, 0, 2
2024-05-05, 13, 0, 11, 0, 2
2024-05-06, 7, 2, 6, 0, 1
2024-05-07, 5, 2, 5, 0, 0
2024-05-08, 2, 0, 1, 0, 1
2024-05-09, 6, 0, 5, 0, 1
2024-05-10, 6, 0, 2, 0, 2
2024-05-11, 8, 2, 5, 0, 3
2024-05-12, 3, 2, 1, 0, 0
2024-05-13, 7, 2, 6, 0, 1
2024-05-14, 3, 0, 3, 0, 0
2024-05-15, 3, 1, 1, 0, 1
2024-05-16, 3, 2, 3, 0, 0
2024-05-17, 7, 0, 4, 0, 2
2024-05-18, 6, 1, 5, 0, 1
